User: anonymous   Login
Location: Unspecified
(0.0000°N, 0.0000°E)
Time: 02:00:57
(UTC+00:00)
Language:

NOAA 18 - Orbit

View from above orbital plane
View from above orbital plane
View from above satellite
View from above satellite

Ground track
Ground track

The orbit data is extracted from the following two-line orbital elements,

1 28654U 05018A   18352.57715182 -.00000032  00000-0  79677-5 0  9991
2 28654  99.1234  31.5765 0013764 332.8572  27.1878 14.12392441699810
Epoch (UTC): 18 December 2018 13:51:05
Eccentricity: 0.0013764
inclination: 99.1234°
perigee height: 841 km
apogee height: 861 km
right ascension of ascending node: 31.5765°
argument of perigee: 332.8572°
revolutions per day: 14.12392441
mean anomaly at epoch: 27.1878°
orbit number at epoch: 69981

The dashed part of the orbit path shows where the satellite is in the earth's shadow,  

DLR